Time,TemperatureF,DewpointF,PressureIn,WindDirection,WindDirectionDegrees,WindSpeedMPH,WindSpeedGustMPH,Humidity,HourlyPrecipIn,Conditions,Clouds,dailyrainin,SoftwareType,DateUTC
2013-03-01 00:02:00,29.2,25.5,30.00,NW,313,7.0,13.0,86,0.00,,,0.00,Wunderground v.1.15,2013-03-01 06:02:00,
2013-03-01 00:07:00,29.2,25.8,30.00,WNW,293,15.0,15.0,87,0.00,,,0.00,Wunderground v.1.15,2013-03-01 06:07:00,
2013-03-01 00:13:00,29.2,25.8,29.99,NW,321,16.0,16.0,87,0.00,,,0.00,Wunderground v.1.15,2013-03-01 06:13:00,
2013-03-01 00:19:00,29.2,25.8,29.99,WNW,300,13.0,16.0,87,0.00,,,0.00,Wunderground v.1.15,2013-03-01 06:19:00,
2013-03-01 00:25:00,29.2,25.8,29.99,WNW,294,16.0,16.0,87,0.00,,,0.00,Wunderground v.1.15,2013-03-01 06:25:00,
2013-03-01 00:30:00,29.1,25.7,30.00,North,351,6.0,9.0,87,0.00,,,0.00,Wunderground v.1.15,2013-03-01 06:30:00,
2013-03-01 00:35:00,29.1,25.7,30.00,NW,323,11.0,18.0,87,0.00,,,0.00,Wunderground v.1.15,2013-03-01 06:35:00,
2013-03-01 00:41:00,29.1,26.0,29.99,WNW,294,4.0,12.0,88,0.00,,,0.00,Wunderground v.1.15,2013-03-01 06:41:00,
2013-03-01 00:46:00,29.1,26.0,29.99,WNW,285,10.0,12.0,88,0.00,,,0.00,Wunderground v.1.15,2013-03-01 06:46:00,
2013-03-01 00:51:00,29.1,26.0,29.99,WNW,300,16.0,16.0,88,0.00,,,0.00,Wunderground v.1.15,2013-03-01 06:51:00,
2013-03-01 00:56:00,29.0,25.9,29.99,WNW,289,9.0,16.0,88,0.00,,,0.00,Wunderground v.1.15,2013-03-01 06:56:00,
2013-03-01 01:02:00,29.0,26.2,29.99,NW,314,9.0,13.0,89,0.00,,,0.00,Wunderground v.1.15,2013-03-01 07:02:00,
2013-03-01 01:07:00,29.0,26.2,29.99,WNW,298,14.0,15.0,89,0.00,,,0.00,Wunderground v.1.15,2013-03-01 07:07:00,
2013-03-01 01:13:00,29.0,26.2,29.99,NW,311,17.0,17.0,89,0.00,,,0.00,Wunderground v.1.15,2013-03-01 07:13:00,
2013-03-01 01:19:00,28.9,26.3,29.99,WNW,295,10.0,19.0,90,0.00,,,0.00,Wunderground v.1.15,2013-03-01 07:19:00,
2013-03-01 01:25:00,28.9,26.3,29.99,SW,215,5.0,12.0,90,0.00,,,0.00,Wunderground v.1.15,2013-03-01 07:25:00,
2013-03-01 01:30:00,28.9,26.3,29.99,NNW,343,3.0,7.0,90,0.00,,,0.00,Wunderground v.1.15,2013-03-01 07:30:00,
2013-03-01 01:36:00,28.9,26.3,29.99,West,280,7.0,13.0,90,0.00,,,0.00,Wunderground v.1.15,2013-03-01 07:36:00,
2013-03-01 01:41:00,28.8,26.2,29.99,WNW,298,4.0,10.0,90,0.00,,,0.00,Wunderground v.1.15,2013-03-01 07:41:00,
2013-03-01 01:47:00,28.8,26.5,29.98,WNW,289,11.0,14.0,91,0.00,,,0.00,Wunderground v.1.15,2013-03-01 07:47:00,
2013-03-01 01:52:00,28.8,26.2,29.98,WNW,291,11.0,14.0,90,0.00,,,0.00,Wunderground v.1.15,2013-03-01 07:52:00,
2013-03-01 01:58:00,28.7,26.4,29.98,WNW,296,14.0,14.0,91,0.00,,,0.00,Wunderground v.1.15,2013-03-01 07:58:00,
2013-03-01 02:03:00,28.7,26.4,29.98,WNW,288,11.0,14.0,91,0.00,,,0.00,Wunderground v.1.15,2013-03-01 08:03:00,
2013-03-01 02:08:00,28.7,26.4,29.98,NW,315,10.0,17.0,91,0.00,,,0.00,Wunderground v.1.15,2013-03-01 08:08:00,
2013-03-01 02:14:00,28.7,26.4,29.98,WNW,301,3.0,13.0,91,0.00,,,0.00,Wunderground v.1.15,2013-03-01 08:14:00,
2013-03-01 02:19:00,28.7,26.4,29.98,West,272,10.0,13.0,91,0.00,,,0.00,Wunderground v.1.15,2013-03-01 08:19:00,
2013-03-01 02:24:00,28.7,26.4,29.98,WNW,298,5.0,14.0,91,0.00,,,0.00,Wunderground v.1.15,2013-03-01 08:24:00,
2013-03-01 02:29:00,28.7,26.4,29.98,WNW,284,11.0,14.0,91,0.00,,,0.00,Wunderground v.1.15,2013-03-01 08:29:00,
2013-03-01 02:34:00,28.6,26.3,29.99,WNW,303,8.0,15.0,91,0.00,,,0.00,Wunderground v.1.15,2013-03-01 08:34:00,
2013-03-01 02:39:00,28.6,26.3,29.99,WNW,301,11.0,15.0,91,0.00,,,0.00,Wunderground v.1.15,2013-03-01 08:39:00,
2013-03-01 02:44:00,28.7,26.7,29.99,WNW,282,7.0,14.0,92,0.00,,,0.00,Wunderground v.1.15,2013-03-01 08:44:00,
2013-03-01 02:49:00,28.6,26.6,29.99,NW,309,6.0,14.0,92,0.00,,,0.00,Wunderground v.1.15,2013-03-01 08:49:00,
2013-03-01 02:54:00,28.5,26.5,29.99,WNW,298,8.0,13.0,92,0.00,,,0.00,Wunderground v.1.15,2013-03-01 08:54:00,
2013-03-01 02:59:00,28.5,26.5,29.99,WNW,298,12.0,14.0,92,0.00,,,0.00,Wunderground v.1.15,2013-03-01 08:59:00,
2013-03-01 03:04:00,28.5,26.5,30.00,NW,306,3.0,13.0,92,0.00,,,0.00,Wunderground v.1.15,2013-03-01 09:04:00,
2013-03-01 03:09:00,28.5,26.5,30.00,West,275,11.0,13.0,92,0.00,,,0.00,Wunderground v.1.15,2013-03-01 09:09:00,
2013-03-01 03:15:00,28.5,26.5,30.00,West,281,10.0,11.0,92,0.00,,,0.00,Wunderground v.1.15,2013-03-01 09:15:00,
2013-03-01 03:20:00,28.5,26.5,30.00,WNW,300,9.0,12.0,92,0.00,,,0.00,Wunderground v.1.15,2013-03-01 09:20:00,
2013-03-01 03:25:00,28.5,26.5,29.99,WNW,301,5.0,12.0,92,0.00,,,0.00,Wunderground v.1.15,2013-03-01 09:25:00,
2013-03-01 03:30:00,28.5,26.5,30.00,West,266,8.0,12.0,92,0.00,,,0.00,Wunderground v.1.15,2013-03-01 09:30:00,
2013-03-01 03:35:00,28.5,26.7,30.00,West,277,7.0,9.0,93,0.00,,,0.00,Wunderground v.1.15,2013-03-01 09:35:00,
2013-03-01 03:40:00,28.5,26.7,29.99,NNW,329,9.0,12.0,93,0.00,,,0.00,Wunderground v.1.15,2013-03-01 09:40:00,
2013-03-01 03:45:00,28.4,26.6,29.99,NW,309,6.0,11.0,93,0.00,,,0.00,Wunderground v.1.15,2013-03-01 09:45:00,
2013-03-01 03:50:00,28.5,26.7,29.99,NW,304,3.0,9.0,93,0.00,,,0.00,Wunderground v.1.15,2013-03-01 09:50:00,
2013-03-01 03:55:00,28.5,26.7,29.99,NW,311,3.0,10.0,93,0.00,,,0.00,Wunderground v.1.15,2013-03-01 09:55:00,
2013-03-01 04:00:00,28.4,26.6,30.00,West,281,12.0,12.0,93,0.00,,,0.00,Wunderground v.1.15,2013-03-01 10:00:00,
2013-03-01 04:05:00,28.4,26.6,30.00,WNW,290,9.0,12.0,93,0.00,,,0.00,Wunderground v.1.15,2013-03-01 10:05:00,
2013-03-01 04:10:00,28.4,26.6,30.00,WNW,288,10.0,10.0,93,0.00,,,0.00,Wunderground v.1.15,2013-03-01 10:10:00,
2013-03-01 04:15:00,28.4,26.6,30.00,WNW,283,10.0,11.0,93,0.00,,,0.00,Wunderground v.1.15,2013-03-01 10:15:00,
2013-03-01 04:20:00,28.4,26.6,30.00,West,279,8.0,10.0,93,0.00,,,0.00,Wunderground v.1.15,2013-03-01 10:20:00,
2013-03-01 04:25:00,28.4,26.6,30.00,WNW,300,9.0,11.0,93,0.00,,,0.00,Wunderground v.1.15,2013-03-01 10:25:00,
2013-03-01 04:30:00,28.4,26.6,30.00,West,271,8.0,10.0,93,0.00,,,0.00,Wunderground v.1.15,2013-03-01 10:30:00,
2013-03-01 04:35:00,28.4,26.6,30.00,WNW,299,9.0,11.0,93,0.00,,,0.00,Wunderground v.1.15,2013-03-01 10:35:00,
2013-03-01 04:40:00,28.5,26.7,30.00,West,277,11.0,11.0,93,0.00,,,0.00,Wunderground v.1.15,2013-03-01 10:40:00,
2013-03-01 04:45:00,28.5,26.7,30.00,WNW,292,11.0,12.0,93,0.00,,,0.00,Wunderground v.1.15,2013-03-01 10:45:00,
2013-03-01 04:50:00,28.5,26.7,30.00,WNW,296,8.0,9.0,93,0.00,,,0.00,Wunderground v.1.15,2013-03-01 10:50:00,
2013-03-01 04:55:00,28.5,26.7,30.00,West,263,4.0,12.0,93,0.00,,,0.00,Wunderground v.1.15,2013-03-01 10:55:00,
2013-03-01 05:00:00,28.5,26.7,30.00,WNW,294,7.0,10.0,93,0.00,,,0.00,Wunderground v.1.15,2013-03-01 11:00:00,
2013-03-01 05:06:00,28.6,27.1,30.00,SSW,198,2.0,13.0,94,0.00,,,0.00,Wunderground v.1.15,2013-03-01 11:06:00,
2013-03-01 05:11:00,28.6,27.1,30.00,WNW,295,10.0,11.0,94,0.00,,,0.00,Wunderground v.1.15,2013-03-01 11:11:00,
2013-03-01 05:16:00,28.6,27.1,29.99,NW,305,3.0,12.0,94,0.00,,,0.00,Wunderground v.1.15,2013-03-01 11:16:00,
2013-03-01 05:21:00,28.6,27.1,29.99,WNW,296,5.0,7.0,94,0.00,,,0.00,Wunderground v.1.15,2013-03-01 11:21:00,
2013-03-01 05:26:00,28.6,27.1,29.99,West,279,6.0,10.0,94,0.00,,,0.00,Wunderground v.1.15,2013-03-01 11:26:00,
2013-03-01 05:31:00,28.6,27.1,29.99,North,5,3.0,9.0,94,0.00,,,0.00,Wunderground v.1.15,2013-03-01 11:31:00,
2013-03-01 05:36:00,28.6,27.1,29.99,WNW,287,6.0,9.0,94,0.00,,,0.00,Wunderground v.1.15,2013-03-01 11:36:00,
2013-03-01 05:41:00,28.6,27.1,29.99,WNW,299,6.0,7.0,94,0.00,,,0.00,Wunderground v.1.15,2013-03-01 11:41:00,
2013-03-01 05:46:00,28.6,27.1,30.00,WNW,300,5.0,9.0,94,0.00,,,0.00,Wunderground v.1.15,2013-03-01 11:46:00,
2013-03-01 05:51:00,28.6,27.1,30.00,WNW,301,7.0,8.0,94,0.00,,,0.00,Wunderground v.1.15,2013-03-01 11:51:00,
2013-03-01 05:56:00,28.6,27.1,30.00,WNW,294,5.0,8.0,94,0.00,,,0.00,Wunderground v.1.15,2013-03-01 11:56:00,
2013-03-01 06:01:00,28.6,27.1,30.00,WNW,294,7.0,8.0,94,0.00,,,0.00,Wunderground v.1.15,2013-03-01 12:01:00,
2013-03-01 06:07:00,28.6,27.1,30.00,NW,311,8.0,9.0,94,0.00,,,0.00,Wunderground v.1.15,2013-03-01 12:07:00,
2013-03-01 06:12:00,28.6,27.1,30.00,West,273,9.0,10.0,94,0.00,,,0.00,Wunderground v.1.15,2013-03-01 12:12:00,
2013-03-01 06:17:00,28.5,27.0,30.00,NW,311,4.0,11.0,94,0.00,,,0.00,Wunderground v.1.15,2013-03-01 12:17:00,
2013-03-01 06:22:00,28.6,27.1,30.00,WNW,300,7.0,10.0,94,0.00,,,0.00,Wunderground v.1.15,2013-03-01 12:22:00,
2013-03-01 06:27:00,28.6,27.4,30.00,West,267,4.0,10.0,95,0.00,,,0.00,Wunderground v.1.15,2013-03-01 12:27:00,
2013-03-01 06:32:00,28.6,27.4,30.00,WNW,298,11.0,11.0,95,0.00,,,0.00,Wunderground v.1.15,2013-03-01 12:32:00,
2013-03-01 06:37:00,28.6,27.4,30.00,WNW,292,5.0,11.0,95,0.00,,,0.00,Wunderground v.1.15,2013-03-01 12:37:00,
2013-03-01 06:42:00,28.5,27.3,30.00,WNW,292,9.0,11.0,95,0.00,,,0.00,Wunderground v.1.15,2013-03-01 12:42:00,
2013-03-01 06:47:00,28.5,27.3,30.01,NW,307,8.0,11.0,95,0.00,,,0.00,Wunderground v.1.15,2013-03-01 12:47:00,
2013-03-01 06:52:00,28.5,27.3,30.01,West,280,8.0,8.0,95,0.00,,,0.00,Wunderground v.1.15,2013-03-01 12:52:00,
2013-03-01 06:57:00,28.5,27.3,30.01,WSW,255,3.0,10.0,95,0.00,,,0.00,Wunderground v.1.15,2013-03-01 12:57:00,
2013-03-01 07:02:00,28.5,27.3,30.01,NNE,33,6.0,8.0,95,0.00,,,0.00,Wunderground v.1.15,2013-03-01 13:02:00,
2013-03-01 07:07:00,28.6,27.4,30.01,West,279,8.0,10.0,95,0.00,,,0.00,Wunderground v.1.15,2013-03-01 13:07:00,
2013-03-01 07:12:00,28.6,27.4,30.01,WNW,294,10.0,12.0,95,0.00,,,0.00,Wunderground v.1.15,2013-03-01 13:12:00,
2013-03-01 07:17:00,28.7,27.4,30.01,NW,306,8.0,12.0,95,0.00,,,0.00,Wunderground v.1.15,2013-03-01 13:17:00,
2013-03-01 07:22:00,28.7,27.4,30.02,WNW,294,7.0,10.0,95,0.00,,,0.00,Wunderground v.1.15,2013-03-01 13:22:00,
2013-03-01 07:27:00,28.7,27.4,30.02,NW,304,7.0,10.0,95,0.00,,,0.00,Wunderground v.1.15,2013-03-01 13:27:00,
2013-03-01 07:32:00,28.7,27.4,30.02,WNW,287,6.0,10.0,95,0.00,,,0.00,Wunderground v.1.15,2013-03-01 13:32:00,
2013-03-01 07:37:00,28.8,27.5,30.02,WSW,256,7.0,10.0,95,0.00,,,0.00,Wunderground v.1.15,2013-03-01 13:37:00,
2013-03-01 07:42:00,28.7,27.4,30.02,NNW,340,2.0,9.0,95,0.00,,,0.00,Wunderground v.1.15,2013-03-01 13:42:00,
2013-03-01 07:47:00,28.7,27.4,30.02,WNW,300,5.0,9.0,95,0.00,,,0.00,Wunderground v.1.15,2013-03-01 13:47:00,
2013-03-01 07:52:00,28.8,27.5,30.02,West,271,5.0,8.0,95,0.00,,,0.00,Wunderground v.1.15,2013-03-01 13:52:00,
2013-03-01 07:57:00,28.8,27.5,30.03,ESE,114,0.0,9.0,95,0.00,,,0.00,Wunderground v.1.15,2013-03-01 13:57:00,
2013-03-01 08:02:00,28.8,27.5,30.03,WNW,301,6.0,8.0,95,0.00,,,0.00,Wunderground v.1.15,2013-03-01 14:02:00,
2013-03-01 08:07:00,28.9,27.6,30.03,WSW,250,7.0,10.0,95,0.00,,,0.00,Wunderground v.1.15,2013-03-01 14:07:00,
2013-03-01 08:12:00,28.8,27.5,30.03,West,263,6.0,11.0,95,0.00,,,0.00,Wunderground v.1.15,2013-03-01 14:12:00,
2013-03-01 08:17:00,28.9,27.6,30.03,WNW,303,7.0,11.0,95,0.00,,,0.00,Wunderground v.1.15,2013-03-01 14:17:00,
2013-03-01 08:22:00,28.9,27.6,30.03,NW,306,6.0,9.0,95,0.00,,,0.00,Wunderground v.1.15,2013-03-01 14:22:00,
2013-03-01 08:27:00,29.0,27.7,30.03,SW,236,2.0,9.0,95,0.00,,,0.00,Wunderground v.1.15,2013-03-01 14:27:00,
2013-03-01 08:33:00,29.0,27.7,30.03,NW,312,3.0,7.0,95,0.00,,,0.00,Wunderground v.1.15,2013-03-01 14:33:00,
2013-03-01 08:38:00,29.1,27.8,30.03,WNW,288,4.0,7.0,95,0.00,,,0.00,Wunderground v.1.15,2013-03-01 14:38:00,
2013-03-01 08:42:00,29.1,27.8,30.03,West,267,7.0,10.0,95,0.00,,,0.00,Wunderground v.1.15,2013-03-01 14:42:00,
2013-03-01 08:47:00,29.0,27.7,30.03,WNW,298,11.0,11.0,95,0.00,,,0.00,Wunderground v.1.15,2013-03-01 14:47:00,
2013-03-01 08:52:00,29.2,27.9,30.03,WNW,298,6.0,8.0,95,0.00,,,0.00,Wunderground v.1.15,2013-03-01 14:52:00,
2013-03-01 08:58:00,29.3,28.0,30.03,NW,316,6.0,8.0,95,0.00,,,0.00,Wunderground v.1.15,2013-03-01 14:58:00,
2013-03-01 09:03:00,29.3,28.0,30.03,WNW,298,8.0,9.0,95,0.00,,,0.00,Wunderground v.1.15,2013-03-01 15:03:00,
2013-03-01 09:08:00,29.4,28.1,30.03,WNW,302,6.0,9.0,95,0.00,,,0.00,Wunderground v.1.15,2013-03-01 15:08:00,
2013-03-01 09:13:00,29.5,28.2,30.03,WNW,289,6.0,7.0,95,0.00,,,0.00,Wunderground v.1.15,2013-03-01 15:13:00,
2013-03-01 09:18:00,29.6,28.3,30.03,WNW,286,8.0,10.0,95,0.00,,,0.00,Wunderground v.1.15,2013-03-01 15:18:00,
2013-03-01 09:23:00,29.5,28.2,30.03,NNW,347,3.0,10.0,95,0.00,,,0.00,Wunderground v.1.15,2013-03-01 15:23:00,
2013-03-01 09:28:00,29.5,28.2,30.03,WSW,240,1.0,10.0,95,0.00,,,0.00,Wunderground v.1.15,2013-03-01 15:28:00,
2013-03-01 09:33:00,29.5,28.2,30.03,WNW,291,7.0,9.0,95,0.00,,,0.00,Wunderground v.1.15,2013-03-01 15:33:00,
2013-03-01 09:38:00,29.5,28.2,30.03,WNW,290,7.0,11.0,95,0.00,,,0.00,Wunderground v.1.15,2013-03-01 15:38:00,
2013-03-01 09:43:00,29.5,28.2,30.04,SW,231,4.0,10.0,95,0.00,,,0.00,Wunderground v.1.15,2013-03-01 15:43:00,
2013-03-01 09:48:00,29.5,28.2,30.04,NW,325,7.0,12.0,95,0.00,,,0.00,Wunderground v.1.15,2013-03-01 15:48:00,
2013-03-01 09:53:00,29.4,28.1,30.04,South,173,5.0,10.0,95,0.00,,,0.00,Wunderground v.1.15,2013-03-01 15:53:00,
2013-03-01 09:58:00,29.5,28.2,30.04,WNW,288,7.0,12.0,95,0.00,,,0.00,Wunderground v.1.15,2013-03-01 15:58:00,
2013-03-01 10:04:00,29.5,28.2,30.04,WNW,286,2.0,8.0,95,0.00,,,0.00,Wunderground v.1.15,2013-03-01 16:04:00,
2013-03-01 10:09:00,29.6,28.3,30.04,WNW,294,5.0,10.0,95,0.00,,,0.00,Wunderground v.1.15,2013-03-01 16:09:00,
2013-03-01 10:14:00,29.7,28.4,30.04,ESE,123,2.0,6.0,95,0.00,,,0.00,Wunderground v.1.15,2013-03-01 16:14:00,
2013-03-01 10:19:00,29.6,28.3,30.03,SW,228,3.0,9.0,95,0.00,,,0.00,Wunderground v.1.15,2013-03-01 16:19:00,
2013-03-01 10:24:00,29.5,28.2,30.03,South,190,3.0,11.0,95,0.00,,,0.00,Wunderground v.1.15,2013-03-01 16:24:00,
2013-03-01 10:29:00,29.5,28.2,30.03,WNW,284,4.0,11.0,95,0.00,,,0.00,Wunderground v.1.15,2013-03-01 16:29:00,
2013-03-01 10:34:00,29.4,28.1,30.03,WSW,252,9.0,9.0,95,0.00,,,0.00,Wunderground v.1.15,2013-03-01 16:34:00,
2013-03-01 10:39:00,29.4,28.1,30.03,WSW,248,6.0,9.0,95,0.00,,,0.00,Wunderground v.1.15,2013-03-01 16:39:00,
2013-03-01 10:44:00,29.4,28.1,30.03,WNW,284,4.0,9.0,95,0.00,,,0.00,Wunderground v.1.15,2013-03-01 16:44:00,
2013-03-01 10:49:00,29.5,28.2,30.03,WNW,292,5.0,9.0,95,0.00,,,0.00,Wunderground v.1.15,2013-03-01 16:49:00,
2013-03-01 10:54:00,29.6,28.3,30.03,WNW,285,7.0,9.0,95,0.00,,,0.00,Wunderground v.1.15,2013-03-01 16:54:00,
2013-03-01 10:59:00,29.6,28.3,30.03,NW,313,3.0,9.0,95,0.00,,,0.00,Wunderground v.1.15,2013-03-01 16:59:00,
2013-03-01 11:04:00,29.8,28.5,30.03,WNW,286,4.0,10.0,95,0.00,,,0.00,Wunderground v.1.15,2013-03-01 17:04:00,
2013-03-01 11:09:00,30.1,28.8,30.03,West,276,0.0,10.0,95,0.00,,,0.00,Wunderground v.1.15,2013-03-01 17:09:00,
2013-03-01 11:14:00,30.4,29.1,30.03,NNW,328,1.0,9.0,95,0.00,,,0.00,Wunderground v.1.15,2013-03-01 17:14:00,
2013-03-01 11:19:00,30.8,29.5,30.03,WNW,302,1.0,9.0,95,0.00,,,0.00,Wunderground v.1.15,2013-03-01 17:19:00,
2013-03-01 11:24:00,30.8,29.5,30.03,WNW,285,2.0,8.0,95,0.00,,,0.00,Wunderground v.1.15,2013-03-01 17:24:00,
2013-03-01 11:29:00,30.9,29.4,30.03,West,261,4.0,8.0,94,0.00,,,0.00,Wunderground v.1.15,2013-03-01 17:29:00,
2013-03-01 11:34:00,31.0,29.5,30.03,WNW,298,5.0,7.0,94,0.00,,,0.00,Wunderground v.1.15,2013-03-01 17:34:00,
2013-03-01 11:39:00,30.9,29.1,30.03,WNW,292,3.0,7.0,93,0.00,,,0.00,Wunderground v.1.15,2013-03-01 17:39:00,
2013-03-01 11:44:00,31.0,29.2,30.02,South,180,0.0,5.0,93,0.00,,,0.00,Wunderground v.1.15,2013-03-01 17:44:00,
2013-03-01 11:49:00,31.2,29.4,30.02,NW,306,5.0,8.0,93,0.00,,,0.00,Wunderground v.1.15,2013-03-01 17:49:00,
2013-03-01 11:55:00,31.2,29.1,30.02,WNW,302,0.0,5.0,92,0.00,,,0.00,Wunderground v.1.15,2013-03-01 17:55:00,
2013-03-01 12:00:00,31.3,29.2,30.02,NNE,28,3.0,3.0,92,0.00,,,0.00,Wunderground v.1.15,2013-03-01 18:00:00,
2013-03-01 12:05:00,31.4,29.3,30.02,NNW,331,5.0,10.0,92,0.00,,,0.00,Wunderground v.1.15,2013-03-01 18:05:00,
2013-03-01 12:10:00,31.4,29.3,30.01,NW,309,8.0,8.0,92,0.00,,,0.00,Wunderground v.1.15,2013-03-01 18:10:00,
2013-03-01 12:15:00,31.2,28.9,30.01,NW,306,13.0,17.0,91,0.00,,,0.00,Wunderground v.1.15,2013-03-01 18:15:00,
2013-03-01 12:20:00,31.0,28.7,30.01,West,278,11.0,15.0,91,0.00,,,0.00,Wunderground v.1.15,2013-03-01 18:20:00,
2013-03-01 12:25:00,30.9,28.6,30.01,WNW,288,12.0,15.0,91,0.00,,,0.00,Wunderground v.1.15,2013-03-01 18:25:00,
2013-03-01 12:30:00,30.9,28.6,30.01,NW,317,10.0,10.0,91,0.00,,,0.00,Wunderground v.1.15,2013-03-01 18:30:00,
2013-03-01 12:35:00,30.8,28.2,30.01,North,355,8.0,16.0,90,0.00,,,0.00,Wunderground v.1.15,2013-03-01 18:35:00,
2013-03-01 12:40:00,30.6,28.3,30.01,WNW,301,14.0,14.0,91,0.00,,,0.00,Wunderground v.1.15,2013-03-01 18:40:00,
2013-03-01 12:45:00,30.6,28.6,30.01,WNW,296,14.0,17.0,92,0.00,,,0.00,Wunderground v.1.15,2013-03-01 18:45:00,
2013-03-01 12:50:00,30.4,28.4,30.01,ENE,61,4.0,11.0,92,0.00,,,0.00,Wunderground v.1.15,2013-03-01 18:50:00,
2013-03-01 12:55:00,30.4,28.4,30.01,WNW,292,14.0,16.0,92,0.00,,,0.00,Wunderground v.1.15,2013-03-01 18:55:00,
2013-03-01 13:00:00,30.3,28.5,30.01,WNW,283,10.0,11.0,93,0.00,,,0.00,Wunderground v.1.15,2013-03-01 19:00:00,
2013-03-01 13:05:00,30.3,28.5,30.00,West,277,11.0,12.0,93,0.00,,,0.00,Wunderground v.1.15,2013-03-01 19:05:00,
2013-03-01 13:10:00,30.4,28.6,30.00,NW,323,10.0,11.0,93,0.00,,,0.00,Wunderground v.1.15,2013-03-01 19:10:00,
2013-03-01 13:15:00,30.5,28.5,30.00,West,277,9.0,14.0,92,0.00,,,0.00,Wunderground v.1.15,2013-03-01 19:15:00,
2013-03-01 13:20:00,30.5,28.5,30.00,NW,317,17.0,17.0,92,0.00,,,0.00,Wunderground v.1.15,2013-03-01 19:20:00,
2013-03-01 13:25:00,30.5,28.5,30.00,West,276,11.0,19.0,92,0.00,,,0.00,Wunderground v.1.15,2013-03-01 19:25:00,
2013-03-01 13:30:00,30.3,28.3,30.00,NW,323,3.0,13.0,92,0.00,,,0.00,Wunderground v.1.15,2013-03-01 19:30:00,
2013-03-01 13:35:00,30.3,28.3,30.00,WNW,288,14.0,18.0,92,0.00,,,0.00,Wunderground v.1.15,2013-03-01 19:35:00,
2013-03-01 13:40:00,30.3,28.3,30.00,South,172,3.0,11.0,92,0.00,,,0.00,Wunderground v.1.15,2013-03-01 19:40:00,
2013-03-01 13:45:00,30.4,28.1,30.00,WNW,301,5.0,16.0,91,0.00,,,0.00,Wunderground v.1.15,2013-03-01 19:45:00,
2013-03-01 13:50:00,30.4,28.1,29.99,NW,304,11.0,14.0,91,0.00,,,0.00,Wunderground v.1.15,2013-03-01 19:50:00,
2013-03-01 13:55:00,30.3,27.7,29.99,WNW,298,19.0,19.0,90,0.00,,,0.00,Wunderground v.1.15,2013-03-01 19:55:00,
2013-03-01 14:00:00,30.3,27.7,30.00,NW,319,10.0,14.0,90,0.00,,,0.00,Wunderground v.1.15,2013-03-01 20:00:00,
2013-03-01 14:05:00,30.3,27.7,30.00,West,280,14.0,18.0,90,0.00,,,0.00,Wunderground v.1.15,2013-03-01 20:05:00,
2013-03-01 14:10:00,30.4,27.8,30.00,WNW,292,14.0,15.0,90,0.00,,,0.00,Wunderground v.1.15,2013-03-01 20:10:00,
2013-03-01 14:15:00,30.5,27.9,30.00,NW,323,7.0,15.0,90,0.00,,,0.00,Wunderground v.1.15,2013-03-01 20:15:00,
2013-03-01 14:20:00,30.6,28.0,30.00,NNW,346,4.0,12.0,90,0.00,,,0.00,Wunderground v.1.15,2013-03-01 20:20:00,
2013-03-01 14:26:00,30.7,28.1,30.00,West,281,10.0,12.0,90,0.00,,,0.00,Wunderground v.1.15,2013-03-01 20:26:00,
2013-03-01 14:31:00,30.7,28.1,30.00,WSW,257,7.0,9.0,90,0.00,,,0.00,Wunderground v.1.15,2013-03-01 20:31:00,
2013-03-01 14:36:00,30.8,28.2,30.00,North,355,5.0,13.0,90,0.00,,,0.00,Wunderground v.1.15,2013-03-01 20:36:00,
2013-03-01 14:41:00,30.7,28.1,30.00,WNW,287,11.0,11.0,90,0.00,,,0.00,Wunderground v.1.15,2013-03-01 20:41:00,
2013-03-01 14:46:00,30.7,28.1,30.00,WNW,292,11.0,12.0,90,0.00,,,0.00,Wunderground v.1.15,2013-03-01 20:46:00,
2013-03-01 14:51:00,30.7,28.1,30.00,WNW,300,8.0,12.0,90,0.00,,,0.00,Wunderground v.1.15,2013-03-01 20:51:00,
2013-03-01 14:56:00,30.7,28.1,30.00,ESE,104,3.0,12.0,90,0.00,,,0.00,Wunderground v.1.15,2013-03-01 20:56:00,
2013-03-01 15:01:00,30.8,28.2,30.00,NNW,344,10.0,10.0,90,0.00,,,0.00,Wunderground v.1.15,2013-03-01 21:01:00,
2013-03-01 15:06:00,30.8,28.2,30.00,SSE,159,5.0,14.0,90,0.00,,,0.00,Wunderground v.1.15,2013-03-01 21:06:00,
2013-03-01 15:11:00,30.9,28.3,30.00,NW,307,11.0,12.0,90,0.00,,,0.00,Wunderground v.1.15,2013-03-01 21:11:00,
2013-03-01 15:16:00,30.9,28.3,30.00,WNW,284,12.0,12.0,90,0.00,,,0.00,Wunderground v.1.15,2013-03-01 21:16:00,
2013-03-01 15:21:00,30.8,28.2,30.00,NW,316,6.0,12.0,90,0.00,,,0.00,Wunderground v.1.15,2013-03-01 21:21:00,
2013-03-01 15:26:00,30.7,28.1,29.99,North,360,4.0,16.0,90,0.00,,,0.00,Wunderground v.1.15,2013-03-01 21:26:00,
2013-03-01 15:31:00,30.6,28.3,29.99,WNW,290,12.0,14.0,91,0.00,,,0.00,Wunderground v.1.15,2013-03-01 21:31:00,
2013-03-01 15:36:00,30.5,28.2,29.99,WNW,288,7.0,15.0,91,0.00,,,0.00,Wunderground v.1.15,2013-03-01 21:36:00,
2013-03-01 15:41:00,30.5,28.2,30.00,NW,305,7.0,9.0,91,0.00,,,0.00,Wunderground v.1.15,2013-03-01 21:41:00,
2013-03-01 15:46:00,30.5,28.2,30.00,West,281,11.0,11.0,91,0.00,,,0.00,Wunderground v.1.15,2013-03-01 21:46:00,
2013-03-01 15:52:00,30.5,28.2,30.00,WNW,288,7.0,13.0,91,0.00,,,0.00,Wunderground v.1.15,2013-03-01 21:52:00,
2013-03-01 15:57:00,30.5,28.2,30.00,WNW,290,4.0,13.0,91,0.00,,,0.00,Wunderground v.1.15,2013-03-01 21:57:00,
2013-03-01 16:02:00,30.5,28.2,30.00,West,279,10.0,14.0,91,0.00,,,0.00,Wunderground v.1.15,2013-03-01 22:02:00,
2013-03-01 16:07:00,30.5,28.2,30.00,WSW,258,4.0,14.0,91,0.00,,,0.00,Wunderground v.1.15,2013-03-01 22:07:00,
2013-03-01 16:12:00,30.5,28.2,30.01,West,279,10.0,11.0,91,0.00,,,0.00,Wunderground v.1.15,2013-03-01 22:12:00,
2013-03-01 16:17:00,30.5,28.2,30.00,NW,316,9.0,14.0,91,0.00,,,0.00,Wunderground v.1.15,2013-03-01 22:17:00,
2013-03-01 16:22:00,30.4,28.1,30.00,WNW,287,6.0,11.0,91,0.00,,,0.00,Wunderground v.1.15,2013-03-01 22:22:00,
2013-03-01 16:27:00,30.4,28.1,30.00,NNW,342,6.0,14.0,91,0.00,,,0.00,Wunderground v.1.15,2013-03-01 22:27:00,
2013-03-01 16:32:00,30.3,28.0,30.00,WNW,300,6.0,10.0,91,0.00,,,0.00,Wunderground v.1.15,2013-03-01 22:32:00,
2013-03-01 16:37:00,30.3,28.3,30.00,South,175,3.0,12.0,92,0.00,,,0.00,Wunderground v.1.15,2013-03-01 22:37:00,
2013-03-01 16:42:00,30.3,28.3,30.00,NW,305,10.0,13.0,92,0.00,,,0.00,Wunderground v.1.15,2013-03-01 22:42:00,
2013-03-01 16:47:00,30.3,28.3,30.00,WNW,289,12.0,19.0,92,0.00,,,0.00,Wunderground v.1.15,2013-03-01 22:47:00,
2013-03-01 16:52:00,30.1,28.1,30.00,WNW,284,10.0,16.0,92,0.00,,,0.00,Wunderground v.1.15,2013-03-01 22:52:00,
2013-03-01 16:57:00,30.0,28.0,30.00,NW,323,12.0,18.0,92,0.00,,,0.00,Wunderground v.1.15,2013-03-01 22:57:00,
2013-03-01 17:02:00,30.0,28.2,30.00,NE,53,3.0,14.0,93,0.00,,,0.00,Wunderground v.1.15,2013-03-01 23:02:00,
2013-03-01 17:07:00,30.0,28.0,30.01,NW,323,12.0,14.0,92,0.00,,,0.00,Wunderground v.1.15,2013-03-01 23:07:00,
2013-03-01 17:12:00,30.0,28.2,30.01,WNW,291,10.0,10.0,93,0.00,,,0.00,Wunderground v.1.15,2013-03-01 23:12:00,
2013-03-01 17:17:00,30.0,28.0,30.01,West,271,7.0,12.0,92,0.00,,,0.00,Wunderground v.1.15,2013-03-01 23:17:00,
2013-03-01 17:22:00,30.0,28.0,30.00,WNW,285,6.0,9.0,92,0.00,,,0.00,Wunderground v.1.15,2013-03-01 23:22:00,
2013-03-01 17:27:00,30.0,28.0,30.00,South,169,5.0,10.0,92,0.00,,,0.00,Wunderground v.1.15,2013-03-01 23:27:00,
2013-03-01 17:32:00,30.0,28.0,30.01,SW,236,3.0,12.0,92,0.00,,,0.00,Wunderground v.1.15,2013-03-01 23:32:00,
2013-03-01 17:37:00,30.0,28.0,30.01,NW,306,11.0,12.0,92,0.00,,,0.00,Wunderground v.1.15,2013-03-01 23:37:00,
2013-03-01 17:42:00,30.0,28.0,30.01,WNW,297,7.0,9.0,92,0.00,,,0.00,Wunderground v.1.15,2013-03-01 23:42:00,
2013-03-01 17:47:00,30.0,28.0,30.01,WNW,295,4.0,9.0,92,0.00,,,0.00,Wunderground v.1.15,2013-03-01 23:47:00,
2013-03-01 17:52:00,30.0,28.0,30.01,WNW,292,6.0,9.0,92,0.00,,,0.00,Wunderground v.1.15,2013-03-01 23:52:00,
2013-03-01 17:57:00,30.0,28.0,30.02,NW,318,4.0,10.0,92,0.00,,,0.00,Wunderground v.1.15,2013-03-01 23:57:00,
2013-03-01 18:02:00,30.0,28.0,30.02,NW,313,6.0,9.0,92,0.00,,,0.00,Wunderground v.1.15,2013-03-02 00:02:00,
2013-03-01 18:07:00,30.1,28.1,30.02,NW,307,5.0,9.0,92,0.00,,,0.00,Wunderground v.1.15,2013-03-02 00:07:00,
2013-03-01 18:12:00,30.1,28.1,30.02,NW,313,4.0,11.0,92,0.00,,,0.00,Wunderground v.1.15,2013-03-02 00:12:00,
2013-03-01 18:17:00,30.1,28.1,30.02,West,280,3.0,11.0,92,0.00,,,0.00,Wunderground v.1.15,2013-03-02 00:17:00,
2013-03-01 18:22:00,30.1,28.1,30.02,WNW,291,10.0,10.0,92,0.00,,,0.00,Wunderground v.1.15,2013-03-02 00:22:00,
2013-03-01 18:28:00,30.0,28.0,30.02,NW,313,6.0,10.0,92,0.00,,,0.00,Wunderground v.1.15,2013-03-02 00:28:00,
2013-03-01 18:33:00,30.0,28.0,30.02,SW,225,6.0,8.0,92,0.00,,,0.00,Wunderground v.1.15,2013-03-02 00:33:00,
2013-03-01 18:38:00,29.9,27.9,30.02,NE,56,1.0,9.0,92,0.00,,,0.00,Wunderground v.1.15,2013-03-02 00:38:00,
2013-03-01 18:43:00,29.9,27.9,30.02,WNW,300,2.0,9.0,92,0.00,,,0.00,Wunderground v.1.15,2013-03-02 00:43:00,
2013-03-01 18:48:00,29.8,28.0,30.02,WNW,302,8.0,9.0,93,0.00,,,0.00,Wunderground v.1.15,2013-03-02 00:48:00,
2013-03-01 18:53:00,29.7,27.9,30.02,WNW,302,7.0,10.0,93,0.00,,,0.00,Wunderground v.1.15,2013-03-02 00:53:00,
2013-03-01 18:58:00,29.6,27.8,30.02,NW,316,7.0,10.0,93,0.00,,,0.00,Wunderground v.1.15,2013-03-02 00:58:00,
2013-03-01 19:04:00,29.5,27.7,30.02,WNW,296,6.0,11.0,93,0.00,,,0.00,Wunderground v.1.15,2013-03-02 01:04:00,
2013-03-01 19:09:00,29.4,27.9,30.02,West,266,10.0,11.0,94,0.00,,,0.00,Wunderground v.1.15,2013-03-02 01:09:00,
2013-03-01 19:14:00,29.4,27.9,30.02,NW,316,5.0,11.0,94,0.00,,,0.00,Wunderground v.1.15,2013-03-02 01:14:00,
2013-03-01 19:19:00,29.3,27.8,30.02,West,279,7.0,11.0,94,0.00,,,0.00,Wunderground v.1.15,2013-03-02 01:19:00,
2013-03-01 19:24:00,29.3,27.8,30.02,WNW,283,10.0,12.0,94,0.00,,,0.00,Wunderground v.1.15,2013-03-02 01:24:00,
2013-03-01 19:29:00,29.2,27.7,30.03,WNW,289,2.0,14.0,94,0.00,,,0.00,Wunderground v.1.15,2013-03-02 01:29:00,
2013-03-01 19:34:00,29.2,27.7,30.03,SW,219,8.0,10.0,94,0.00,,,0.00,Wunderground v.1.15,2013-03-02 01:34:00,
2013-03-01 19:39:00,29.2,27.9,30.02,West,277,6.0,10.0,95,0.00,,,0.00,Wunderground v.1.15,2013-03-02 01:39:00,
2013-03-01 19:44:00,29.1,27.8,30.03,West,275,6.0,9.0,95,0.00,,,0.00,Wunderground v.1.15,2013-03-02 01:44:00,
2013-03-01 19:49:00,29.0,27.7,30.03,West,259,7.0,9.0,95,0.00,,,0.00,Wunderground v.1.15,2013-03-02 01:49:00,
2013-03-01 19:54:00,29.0,27.7,30.03,WSW,242,8.0,10.0,95,0.00,,,0.00,Wunderground v.1.15,2013-03-02 01:54:00,
2013-03-01 19:59:00,29.0,27.7,30.03,WNW,294,11.0,11.0,95,0.00,,,0.00,Wunderground v.1.15,2013-03-02 01:59:00,
2013-03-01 20:04:00,29.0,27.7,30.02,WNW,292,9.0,13.0,95,0.00,,,0.00,Wunderground v.1.15,2013-03-02 02:04:00,
2013-03-01 20:09:00,29.0,27.7,30.02,WNW,295,5.0,13.0,95,0.00,,,0.00,Wunderground v.1.15,2013-03-02 02:09:00,
2013-03-01 20:14:00,29.1,27.8,30.03,WNW,298,10.0,13.0,95,0.00,,,0.00,Wunderground v.1.15,2013-03-02 02:14:00,
2013-03-01 20:19:00,29.0,27.7,30.03,West,273,7.0,13.0,95,0.00,,,0.00,Wunderground v.1.15,2013-03-02 02:19:00,
2013-03-01 20:24:00,29.0,27.7,30.03,West,281,5.0,11.0,95,0.00,,,0.00,Wunderground v.1.15,2013-03-02 02:24:00,
2013-03-01 20:29:00,29.0,27.7,30.03,West,277,8.0,11.0,95,0.00,,,0.00,Wunderground v.1.15,2013-03-02 02:29:00,
2013-03-01 20:34:00,29.0,27.7,30.03,WNW,292,11.0,13.0,95,0.00,,,0.00,Wunderground v.1.15,2013-03-02 02:34:00,
2013-03-01 20:39:00,28.9,27.6,30.03,WNW,293,11.0,13.0,95,0.00,,,0.00,Wunderground v.1.15,2013-03-02 02:39:00,
2013-03-01 20:44:00,28.9,27.6,30.03,West,280,11.0,14.0,95,0.00,,,0.00,Wunderground v.1.15,2013-03-02 02:44:00,
2013-03-01 20:49:00,28.9,27.6,30.03,WNW,290,11.0,14.0,95,0.00,,,0.00,Wunderground v.1.15,2013-03-02 02:49:00,
2013-03-01 20:54:00,28.8,27.5,30.03,WSW,258,11.0,13.0,95,0.00,,,0.00,Wunderground v.1.15,2013-03-02 02:54:00,
2013-03-01 20:59:00,28.8,27.8,30.03,WNW,289,12.0,14.0,96,0.00,,,0.00,Wunderground v.1.15,2013-03-02 02:59:00,
2013-03-01 21:04:00,28.9,27.9,30.03,WNW,290,11.0,13.0,96,0.00,,,0.00,Wunderground v.1.15,2013-03-02 03:04:00,
2013-03-01 21:09:00,28.8,27.8,30.03,West,259,12.0,13.0,96,0.00,,,0.00,Wunderground v.1.15,2013-03-02 03:09:00,
2013-03-01 21:14:00,28.8,27.8,30.03,WNW,292,8.0,12.0,96,0.00,,,0.00,Wunderground v.1.15,2013-03-02 03:14:00,
2013-03-01 21:19:00,28.7,27.7,30.03,West,268,8.0,12.0,96,0.00,,,0.00,Wunderground v.1.15,2013-03-02 03:19:00,
2013-03-01 21:24:00,28.7,27.7,30.02,West,266,9.0,12.0,96,0.00,,,0.00,Wunderground v.1.15,2013-03-02 03:24:00,
2013-03-01 21:29:00,28.7,27.7,30.02,NNW,329,3.0,13.0,96,0.00,,,0.00,Wunderground v.1.15,2013-03-02 03:29:00,
2013-03-01 21:34:00,28.7,27.7,30.02,West,279,14.0,17.0,96,0.00,,,0.00,Wunderground v.1.15,2013-03-02 03:34:00,
2013-03-01 21:39:00,28.7,27.7,30.02,West,275,13.0,17.0,96,0.00,,,0.00,Wunderground v.1.15,2013-03-02 03:39:00,
2013-03-01 21:45:00,28.8,27.8,30.02,West,279,11.0,13.0,96,0.00,,,0.00,Wunderground v.1.15,2013-03-02 03:45:00,
2013-03-01 21:50:00,28.7,27.7,30.01,WNW,286,5.0,16.0,96,0.00,,,0.00,Wunderground v.1.15,2013-03-02 03:50:00,
2013-03-01 21:55:00,28.7,27.7,30.02,WNW,289,9.0,15.0,96,0.00,,,0.00,Wunderground v.1.15,2013-03-02 03:55:00,
2013-03-01 22:00:00,28.7,27.7,30.02,East,99,11.0,15.0,96,0.00,,,0.00,Wunderground v.1.15,2013-03-02 04:00:00,
2013-03-01 22:05:00,28.7,27.7,30.02,NNW,344,6.0,13.0,96,0.00,,,0.00,Wunderground v.1.15,2013-03-02 04:05:00,
2013-03-01 22:10:00,28.7,27.7,30.02,WNW,292,10.0,10.0,96,0.00,,,0.00,Wunderground v.1.15,2013-03-02 04:10:00,
2013-03-01 22:15:00,28.6,27.6,30.01,WNW,291,8.0,13.0,96,0.00,,,0.00,Wunderground v.1.15,2013-03-02 04:15:00,
2013-03-01 22:20:00,28.6,27.6,30.01,WNW,288,10.0,11.0,96,0.00,,,0.00,Wunderground v.1.15,2013-03-02 04:20:00,
2013-03-01 22:25:00,28.7,27.7,30.01,ENE,67,10.0,15.0,96,0.00,,,0.00,Wunderground v.1.15,2013-03-02 04:25:00,
2013-03-01 22:30:00,28.6,27.6,30.01,WNW,298,11.0,13.0,96,0.00,,,0.00,Wunderground v.1.15,2013-03-02 04:30:00,
2013-03-01 22:35:00,28.6,27.6,30.01,WNW,301,6.0,13.0,96,0.00,,,0.00,Wunderground v.1.15,2013-03-02 04:35:00,
2013-03-01 22:40:00,28.5,27.5,30.01,WNW,290,12.0,12.0,96,0.00,,,0.00,Wunderground v.1.15,2013-03-02 04:40:00,
2013-03-01 22:45:00,28.6,27.6,30.01,West,263,7.0,16.0,96,0.00,,,0.00,Wunderground v.1.15,2013-03-02 04:45:00,
2013-03-01 22:50:00,28.5,27.5,30.01,WNW,295,10.0,11.0,96,0.00,,,0.00,Wunderground v.1.15,2013-03-02 04:50:00,
2013-03-01 22:56:00,28.5,27.5,30.01,WNW,282,13.0,15.0,96,0.00,,,0.00,Wunderground v.1.15,2013-03-02 04:56:00,
2013-03-01 23:00:00,28.5,27.5,30.01,WNW,296,10.0,16.0,96,0.00,,,0.00,Wunderground v.1.15,2013-03-02 05:00:00,
2013-03-01 23:05:00,28.6,27.6,30.01,WNW,296,12.0,14.0,96,0.00,,,0.00,Wunderground v.1.15,2013-03-02 05:05:00,
2013-03-01 23:10:00,28.5,27.5,30.00,West,273,11.0,11.0,96,0.00,,,0.00,Wunderground v.1.15,2013-03-02 05:10:00,
2013-03-01 23:16:00,28.5,27.5,30.00,NW,307,12.0,15.0,96,0.00,,,0.00,Wunderground v.1.15,2013-03-02 05:16:00,
2013-03-01 23:21:00,28.6,27.6,30.00,West,281,13.0,13.0,96,0.00,,,0.00,Wunderground v.1.15,2013-03-02 05:21:00,
2013-03-01 23:26:00,28.6,27.6,30.00,West,277,11.0,13.0,96,0.00,,,0.00,Wunderground v.1.15,2013-03-02 05:26:00,
2013-03-01 23:31:00,28.5,27.5,30.00,WNW,299,11.0,12.0,96,0.00,,,0.00,Wunderground v.1.15,2013-03-02 05:31:00,
2013-03-01 23:36:00,28.6,27.6,30.00,WNW,286,10.0,12.0,96,0.00,,,0.00,Wunderground v.1.15,2013-03-02 05:36:00,
2013-03-01 23:41:00,28.5,27.5,30.00,West,273,11.0,12.0,96,0.00,,,0.00,Wunderground v.1.15,2013-03-02 05:41:00,
2013-03-01 23:46:00,28.5,27.5,30.00,WNW,303,9.0,12.0,96,0.00,,,0.00,Wunderground v.1.15,2013-03-02 05:46:00,
2013-03-01 23:51:00,28.5,27.5,30.00,WNW,293,10.0,11.0,96,0.00,,,0.00,Wunderground v.1.15,2013-03-02 05:51:00,
2013-03-01 23:56:00,28.5,27.5,30.00,WNW,285,9.0,12.0,96,0.00,,,0.00,Wunderground v.1.15,2013-03-02 05:56:00,